Temp
14 14 15 15 15 15 16 16 17 17 18 18 19 19 19 20 20 21 22 24 23 22 22 21 18 18 17 18 19 18 22 23 24 24 26 25 24 23 22 21 21 20 19 18 16
12 13 14 14 14 15 15 15 16 16 17 17 18 18 19 19 20 22 25 24 23 23 21 21 18 18 19 19 19 20 22 25 25 25 26 25 25 23 22 22 21 19 18 16 16
12 12 12 13 14 14 15 15 15 16 17 17 17 18 18 19 20 24 24 24 23 23 22 19 18 19 20 18 19 20 23 25 26 26 26 26 25 24 23 23 22 19 17 16 16
11 11 12 12 13 13 14 15 15 16 17 17 17 17 17 18 22 23 24 24 23 22 21 18 18 20 21 21 20 21 22 24 25 26 26 26 25 25 24 24 23 20 18 17 17
11 11 11 12 13 13 14 15 15 16 16 17 17 17 16 17 20 23 23 23 22 21 21 19 19 21 22 22 21 21 23 24 24 25 26 25 24 26 24 22 21 19 18 17 17
11 11 12 12 13 14 14 15 16 17 17 17 17 17 15 16 22 23 23 22 23 21 19 20 20 21 22 22 23 24 23 25 25 26 26 26 26 25 24 21 20 19 19 18 18
11 12 12 13 13 14 14 14 16 17 17 17 17 17 15 20 22 22 22 23 23 23 20 20 20 21 22 24 23 25 25 26 26 27 27 26 25 25 23 21 20 19 19 18 18
11 11 12 13 13 14 14 15 16 17 18 18 18 17 16 21 20 21 22 21 20 19 21 20 20 21 22 23 25 25 25 27 27 27 27 27 27 27 23 22 21 20 19 19 18
10 11 12 12 13 14 14 15 15 15 16 17 16 16 17 20 20 21 22 22 20 17 18 19 19 21 22 23 24 24 27 26 28 27 27 27 28 28 24 23 22 21 20 19 19
10 10 12 12 13 13 15 15 14 13 14 14 13 13 18 20 20 21 20 21 17 17 19 20 20 22 23 23 23 24 25 26 27 29 28 27 28 27 24 24 23 22 21 20 20
9 10 11 12 12 12 13 14 13 12 12 14 14 14 18 19 19 20 20 19 18 19 20 21 22 21 23 23 25 25 25 27 28 29 28 28 29 28 25 25 24 23 22 21 21
8 9 10 12 12 12 11 11 7 7 7 16 17 14 18 17 19 19 19 20 20 20 21 20 21 23 23 23 23 24 25 26 27 27 27 29 28 28 26 25 24 24 22 22 22
7 8 9 11 12 12 11 9 8 8 7 12 13 13 16 18 17 19 19 21 21 21 21 22 24 24 22 22 23 23 24 26 27 27 27 27 28 26 26 25 24 24 23 22 22
8 7 8 10 11 11 9 9 9 9 13 18 16 16 16 18 18 19 19 22 22 22 22 23 24 23 22 23 23 24 25 25 25 25 26 27 28 25 27 25 25 24 24 23 23
8 7 8 8 9 8 8 9 10 9 18 19 18 17 17 19 20 18 20 21 24 23 23 23 23 22 22 23 24 24 25 25 26 26 26 27 27 29 26 26 26 25 24 24 24
8 7 7 8 8 7 8 10 10 14 17 20 19 19 18 19 20 19 20 21 23 23 24 25 23 24 24 24 24 25 25 25 24 26 25 27 27 29 27 27 27 26 25 24 24
7 7 8 7 7 8 9 10 13 14 18 16 16 17 17 18 20 20 20 21 23 22 22 24 23 24 25 24 24 25 25 24 23 24 24 28 26 27 29 29 30 28 26 25 24
7 7 7 6 7 8 8 12 12 14 13 14 15 16 17 17 18 18 20 21 24 24 24 23 22 24 25 25 24 24 26 25 24 25 26 25 26 27 29 30 28 29 28 27 25
7 8 6 6 8 8 8 11 12 11 11 11 14 15 16 16 16 17 19 22 23 24 24 24 24 25 25 26 26 24 25 27 26 22 24 27 27 28 28 30 30 28 28 27 26
6 7 6 7 7 7 9 8 9 10 10 12 11 13 13 14 15 17 17 14 18 17 17 23 23 25 25 26 26 25 26 23 25 23 24 26 25 28 28 29 29 30 28 28 27
5 5 6 7 7 7 7 7 7 8 8 11 11 11 12 12 13 15 14 14 14 16 17 18 22 23 25 24 25 23 25 25 26 25 25 26 28 28 28 29 30 30 29 29 29
4 6 5 6 7 5 7 6 7 8 7 9 11 11 12 12 13 14 13 13 13 15 15 15 19 23 23 26 27 26 25 25 24 22 24 26 27 27 29 30 30 30 30 29 29
2 2 5 5 5 5 5 5 7 7 7 7 9 10 11 11 12 12 12 12 12 14 14 15 17 22 23 25 24 25 26 26 26 27 24 24 26 29 28 28 27 28 28 27 28
2 5 4 3 2 4 4 5 6 7 6 5 5 8 9 10 10 11 11 12 11 13 13 14 15 18 23 23 19 21 24 25 26 25 25 26 27 28 29 29 29 28 28 27 27
2 3 2 4 4 4 4 4 5 6 6 5 3 4 4 8 9 10 10 10 12 10 13 14 15 15 16 16 17 18 19 21 23 25 26 27 26 27 28 29 29 29 27 27 26
2 3 1 1 3 4 5 5 5 6 5 6 5 4 4 4 7 8 8 9 10 11 11 11 14 14 15 17 18 18 19 20 21 22 23 24 25 28 28 28 29 29 30 29 28
2 2 1 1 2 3 4 5 4 5 5 5 4 5 6 7 7 7 8 8 9 9 10 10 12 14 15 17 17 18 20 21 21 23 23 23 25 26 27 26 27 27 27 27 29
Height
1521 1518 1515 1512 1510 1508 1506 1504 1502 1500 1499 1498 1497 1495 1494 1493 1492 1489 1485 1488 1490 1492 1494 1496 1501 1505 1509 1511 1511 1512 1511 1510 1505 1506 1500 1502 1503 1510 1513 1514 1518 1520 1520 1524 1529
1518 1516 1513 1510 1508 1505 1502 1500 1498 1496 1495 1494 1492 1491 1490 1488 1486 1482 1480 1481 1484 1487 1490 1491 1497 1503 1508 1510 1512 1511 1511 1501 1499 1499 1498 1500 1501 1507 1512 1515 1518 1519 1522 1524 1530
1517 1514 1511 1508 1504 1501 1498 1495 1493 1492 1490 1489 1488 1487 1486 1485 1483 1474 1474 1474 1476 1483 1490 1494 1498 1503 1506 1509 1509 1508 1503 1498 1497 1497 1498 1499 1501 1504 1508 1513 1514 1515 1519 1525 1530
1516 1513 1509 1505 1502 1498 1494 1491 1488 1486 1485 1484 1483 1483 1483 1484 1482 1471 1472 1471 1474 1481 1487 1493 1499 1501 1501 1503 1505 1505 1499 1497 1495 1496 1496 1498 1500 1502 1505 1508 1511 1516 1518 1522 1529
1515 1511 1507 1503 1499 1495 1490 1486 1482 1480 1479 1479 1478 1478 1480 1479 1469 1471 1471 1472 1473 1478 1484 1488 1494 1496 1496 1498 1501 1501 1497 1496 1495 1494 1494 1497 1498 1500 1505 1507 1509 1514 1520 1524 1529
1513 1509 1505 1500 1496 1491 1485 1479 1475 1473 1473 1473 1473 1474 1476 1475 1464 1464 1468 1470 1472 1476 1483 1488 1490 1494 1495 1495 1496 1493 1496 1495 1493 1491 1491 1493 1498 1502 1505 1506 1511 1514 1518 1524 1528
1510 1506 1501 1496 1492 1486 1480 1474 1469 1467 1467 1467 1468 1468 1468 1460 1460 1462 1463 1466 1470 1473 1478 1484 1488 1492 1493 1492 1493 1491 1493 1492 1488 1489 1489 1493 1499 1497 1503 1505 1509 1517 1516 1522 1526
1508 1504 1499 1493 1488 1482 1476 1469 1464 1461 1460 1462 1462 1463 1459 1453 1454 1459 1460 1463 1469 1475 1481 1484 1489 1493 1492 1492 1489 1488 1489 1491 1481 1484 1486 1489 1489 1492 1499 1500 1506 1513 1517 1518 1523
1507 1501 1496 1490 1483 1478 1473 1467 1463 1460 1458 1458 1459 1460 1453 1447 1449 1454 1458 1460 1466 1474 1481 1486 1490 1491 1492 1492 1492 1488 1485 1487 1482 1480 1482 1485 1482 1484 1492 1498 1502 1507 1512 1516 1520
1505 1499 1494 1488 1481 1475 1470 1465 1462 1459 1459 1458 1458 1463 1447 1444 1444 1447 1455 1460 1464 1473 1482 1484 1487 1486 1485 1486 1492 1492 1491 1484 1482 1476 1478 1482 1479 1483 1487 1491 1494 1500 1506 1511 1513
1503 1497 1490 1486 1480 1475 1471 1465 1466 1463 1458 1453 1451 1445 1442 1443 1444 1445 1450 1458 1465 1471 1472 1478 1479 1472 1476 1482 1482 1485 1486 1482 1476 1474 1475 1476 1474 1477 1483 1487 1491 1495 1500 1504 1505
1502 1496 1489 1484 1478 1476 1473 1470 1475 1478 1458 1443 1439 1439 1440 1440 1442 1443 1448 1452 1458 1461 1468 1476 1463 1466 1474 1480 1484 1485 1485 1482 1478 1476 1477 1472 1472 1472 1477 1477 1482 1486 1493 1496 1505
1500 1494 1488 1482 1479 1477 1473 1474 1473 1472 1467 1434 1430 1429 1431 1437 1437 1437 1441 1444 1448 1455 1456 1453 1452 1464 1470 1475 1479 1479 1480 1478 1480 1477 1474 1474 1473 1474 1473 1478 1482 1485 1489 1495 1495
1498 1493 1487 1481 1480 1476 1475 1474 1472 1470 1461 1430 1426 1423 1425 1429 1430 1431 1435 1440 1444 1444 1452 1455 1455 1458 1464 1466 1471 1475 1473 1477 1481 1486 1489 1472 1480 1472 1466 1472 1474 1477 1481 1484 1490
1497 1492 1487 1481 1479 1477 1475 1471 1469 1470 1450 1421 1422 1423 1423 1424 1422 1423 1429 1435 1431 1434 1443 1441 1446 1453 1458 1453 1464 1467 1468 1474 1476 1480 1481 1474 1481 1457 1463 1467 1465 1468 1470 1476 1479
1496 1491 1484 1481 1478 1475 1470 1467 1468 1465 1445 1418 1420 1422 1423 1421 1418 1419 1423 1430 1432 1434 1433 1433 1440 1445 1443 1450 1457 1462 1468 1474 1478 1476 1485 1467 1474 1453 1457 1451 1453 1458 1463 1468 1473
1494 1489 1483 1481 1477 1473 1468 1466 1464 1454 1424 1430 1427 1425 1424 1419 1415 1414 1416 1417 1417 1433 1434 1434 1436 1436 1440 1449 1454 1458 1465 1484 1494 1487 1470 1454 1471 1449 1439 1440 1439 1445 1451 1455 1461
1492 1487 1484 1482 1477 1472 1468 1466 1460 1442 1443 1439 1433 1426 1420 1421 1416 1414 1410 1413 1410 1412 1420 1431 1443 1427 1426 1430 1441 1448 1450 1457 1481 1468 1463 1461 1454 1436 1430 1435 1437 1440 1442 1447 1455
1490 1485 1483 1480 1475 1472 1471 1462 1452 1456 1457 1450 1435 1428 1424 1423 1423 1416 1413 1408 1408 1409 1415 1420 1420 1413 1418 1423 1429 1443 1445 1439 1454 1466 1465 1443 1432 1428 1426 1424 1428 1430 1435 1440 1443
1489 1483 1482 1478 1474 1471 1471 1467 1463 1463 1459 1452 1447 1440 1435 1430 1423 1418 1416 1430 1418 1420 1420 1409 1420 1407 1412 1419 1422 1428 1436 1460 1453 1471 1471 1442 1443 1423 1418 1418 1418 1422 1427 1429 1433
1489 1485 1484 1478 1475 1474 1473 1474 1469 1467 1465 1456 1450 1447 1441 1439 1432 1425 1429 1433 1428 1422 1419 1417 1411 1413 1409 1410 1413 1429 1430 1432 1435 1439 1447 1449 1423 1407 1408 1407 1409 1410 1414 1419 1424
1492 1490 1488 1482 1480 1484 1479 1480 1474 1467 1465 1459 1452 1448 1444 1441 1434 1430 1431 1434 1434 1428 1424 1425 1417 1409 1408 1400 1402 1407 1413 1419 1433 1448 1437 1429 1419 1399 1400 1402 1404 1404 1408 1414 1418
1496 1493 1490 1486 1486 1488 1486 1480 1474 1470 1466 1463 1455 1452 1449 1444 1440 1438 1436 1439 1437 1430 1432 1427 1422 1416 1412 1405 1404 1403 1405 1409 1413 1414 1427 1439 1417 1395 1398 1401 1403 1404 1406 1410 1413
1500 1493 1491 1491 1493 1492 1488 1480 1475 1471 1469 1468 1464 1457 1451 1446 1444 1443 1441 1440 1440 1436 1434 1430 1427 1415 1400 1403 1419 1417 1406 1405 1409 1417 1413 1404 1407 1399 1395 1396 1399 1401 1402 1406 1408
1503 1501 1499 1492 1491 1491 1490 1485 1477 1472 1471 1470 1467 1467 1466 1452 1446 1445 1446 1444 1441 1441 1437 1434 1430 1429 1425 1424 1422 1422 1419 1415 1410 1400 1397 1399 1398 1399 1399 1397 1396 1398 1398 1399 1403
1504 1503 1501 1497 1493 1490 1485 1481 1479 1475 1476 1469 1467 1468 1466 1464 1457 1452 1452 1449 1445 1443 1441 1442 1433 1433 1426 1420 1416 1416 1411 1408 1406 1405 1402 1398 1394 1391 1395 1397 1397 1395 1395 1395 1396
1502 1500 1499 1494 1492 1489 1483 1481 1479 1478 1473 1470 1471 1468 1463 1459 1459 1457 1454 1452 1450 1450 1446 1445 1438 1433 1427 1420 1415 1408 1394 1396 1398 1395 1396 1396 1392 1391 1391 1395 1394 1394 1394 1393 1392
Wind_Speed
18 18 18 19 19 19 18 18 17 17 17 17 16 17 17 17 17 21 26 17 12 19 12 19 22 21 17 9 6 1 2 2 3 4 2 13 7 7 6 17 5 5 12 20 31
19 20 20 20 20 20 20 20 20 18 18 17 17 16 17 18 20 25 19 20 20 17 19 30 26 25 10 10 5 3 2 5 4 5 4 13 12 14 7 17 7 10 17 31 33
20 21 21 20 20 20 21 21 21 21 19 18 17 16 15 15 19 11 5 6 22 21 20 26 26 22 10 9 8 7 4 2 4 8 5 12 11 12 12 12 13 21 29 34 34
22 23 22 22 22 22 22 22 23 22 21 19 18 16 14 10 6 6 4 6 16 26 25 23 26 14 10 9 12 5 13 9 3 2 3 13 11 10 13 4 14 22 34 38 34
25 24 24 24 23 23 23 25 25 23 21 19 19 16 13 9 24 9 7 1 23 32 33 27 31 17 12 10 10 11 5 4 12 12 8 12 16 10 15 3 15 25 33 33 33
27 27 27 25 25 25 28 24 26 24 21 19 19 17 13 9 10 12 23 16 14 34 29 24 22 16 11 6 13 6 13 11 9 12 7 12 10 8 11 15 20 30 34 32 31
29 29 30 28 27 28 22 27 25 22 20 18 18 18 18 25 13 11 15 21 19 27 34 29 11 20 6 5 12 12 9 7 12 11 6 10 8 13 13 18 24 26 32 30 30
29 29 29 30 30 29 25 26 22 15 14 15 17 17 13 9 24 12 15 17 22 25 25 25 14 21 4 3 1 4 5 7 6 12 9 17 12 16 22 26 26 27 28 30 30
30 31 29 30 29 29 25 21 14 12 6 6 10 12 8 10 20 27 12 20 25 25 17 15 16 8 6 11 7 2 7 9 4 15 7 15 13 14 29 26 27 30 29 30 29
30 32 30 29 30 24 21 17 13 11 4 3 4 6 12 5 8 21 25 20 22 22 15 11 15 11 10 12 13 8 8 5 9 6 11 16 17 5 29 29 30 32 30 30 32
31 32 33 29 30 21 17 8 8 4 7 10 4 7 3 6 8 15 34 24 16 23 14 18 12 22 24 17 13 9 7 13 9 6 6 13 16 13 23 27 27 30 32 32 35
32 32 33 32 25 20 10 8 11 13 16 18 25 35 23 3 3 15 40 18 17 16 15 8 25 20 14 17 19 17 17 17 9 6 4 7 11 10 17 27 32 34 34 35 29
33 32 32 31 17 24 11 5 16 24 7 13 13 12 22 25 9 20 36 25 20 21 27 24 6 20 17 15 19 23 23 18 8 4 5 8 12 6 13 19 24 29 31 28 34
35 34 33 31 13 22 5 12 21 16 4 6 5 5 11 11 10 21 33 24 12 26 22 21 20 22 21 23 21 23 20 21 17 9 10 4 13 8 13 18 21 28 31 34 34
35 34 31 26 21 17 21 18 13 1 6 5 4 6 7 12 1 15 34 22 20 18 15 18 24 21 25 29 20 17 14 17 19 14 12 15 9 16 8 15 22 27 34 36 38
33 32 28 18 17 24 23 13 1 4 9 2 3 2 5 11 3 4 21 21 15 11 19 18 10 22 18 20 22 11 10 8 3 9 16 22 14 16 12 19 18 25 33 34 36
34 29 18 14 22 22 22 6 4 6 8 6 4 7 6 2 5 5 18 26 17 16 16 20 13 15 18 17 20 20 17 8 10 11 14 14 13 19 9 17 19 21 33 37 39
32 23 12 17 19 20 18 2 8 5 5 10 9 14 3 6 1 2 13 23 22 19 14 18 15 20 19 19 13 28 23 9 15 16 14 7 15 13 17 24 22 26 29 32 33
32 19 15 25 20 17 7 4 3 6 9 13 12 3 1 3 6 4 2 20 20 12 14 19 18 13 20 18 20 19 25 23 12 1 5 12 15 12 11 17 24 24 25 26 32
31 17 19 27 19 8 2 4 3 10 15 8 5 7 6 10 5 4 3 7 6 3 4 5 7 13 27 18 22 14 19 10 13 14 15 8 10 14 18 20 19 20 25 28 31
23 9 19 18 11 6 3 5 6 11 16 7 7 7 7 6 7 5 6 8 13 6 5 2 6 3 15 23 23 11 20 13 12 12 10 9 11 7 16 19 22 23 31 32 31
15 3 18 14 8 4 4 12 12 9 10 5 6 5 3 5 4 5 3 6 16 11 1 4 3 11 13 12 21 24 19 26 12 12 15 8 8 2 12 11 15 22 27 28 27
12 5 10 13 4 7 8 7 10 9 8 6 5 6 5 4 4 4 5 4 16 12 7 6 3 11 10 9 9 24 22 24 21 14 19 12 7 9 10 8 14 14 17 19 23
8 4 5 6 2 5 8 6 8 10 3 8 6 6 6 1 2 3 5 4 12 9 10 4 1 9 14 9 4 5 14 23 24 17 17 22 17 9 11 9 13 19 22 15 16
6 2 3 4 5 11 5 6 12 8 8 6 2 7 6 2 3 4 6 6 4 9 6 4 2 5 6 8 8 10 13 11 19 25 23 21 24 19 15 13 16 14 13 18 15
4 4 3 8 9 8 6 4 9 9 9 8 4 10 11 3 4 7 8 4 3 5 4 6 2 3 10 10 12 14 15 15 17 19 18 22 25 8 17 28 25 27 29 25 27
6 8 6 3 4 6 4 4 8 17 8 6 9 15 12 11 11 17 16 16 14 9 5 4 2 3 7 8 13 15 21 20 17 16 16 22 18 16 19 13 21 28 29 27 25
Wind_Direction
334 331 329 328 324 319 313 308 304 301 297 294 291 288 288 284 278 274 266 271 265 231 230 190 168 170 165 175 194 163 294 264 227 202 193 158 132 133 138 144 165 175 153 158 156
339 334 329 324 322 320 316 310 304 299 295 293 290 289 290 293 288 274 284 260 241 213 208 175 164 161 169 174 189 202 233 223 185 225 220 173 160 154 152 159 142 105 134 150 158
356 352 344 335 323 317 312 308 305 301 294 290 287 287 289 296 304 279 206 231 210 198 205 174 161 159 167 165 190 184 230 242 219 218 194 178 177 163 148 185 187 164 154 159 164
1 356 351 346 338 329 315 305 299 294 286 280 280 281 284 282 259 193 123 206 188 179 185 159 164 175 185 184 196 211 241 246 278 134 209 190 178 181 181 152 197 175 166 164 171
356 353 349 347 342 336 324 309 298 288 283 276 272 275 278 252 246 224 224 26 172 174 181 172 174 182 197 189 181 236 238 220 259 280 255 193 191 180 195 108 162 162 166 171 176
352 350 346 344 341 336 326 313 294 286 275 268 266 267 257 246 261 226 235 239 188 178 182 181 187 184 191 203 206 212 225 263 266 267 197 188 193 198 180 139 149 164 171 176 183
352 351 347 345 343 338 334 320 310 293 275 257 257 256 246 249 255 236 217 224 217 192 184 192 186 184 180 194 235 251 259 261 236 213 204 188 199 217 169 157 159 177 174 181 189
351 351 347 343 341 340 333 328 324 309 273 254 247 238 241 255 227 214 206 197 197 195 201 190 177 199 214 311 262 227 212 226 158 192 188 177 248 211 175 176 172 177 184 186 193
352 348 348 344 340 339 333 333 333 343 321 244 214 196 248 243 224 206 201 188 185 189 184 190 188 200 229 239 270 239 227 216 211 192 156 199 255 205 187 186 175 183 190 192 195
353 348 350 345 341 344 338 332 320 315 294 271 229 219 235 235 202 194 192 189 166 171 170 169 199 214 207 199 212 215 222 230 231 171 190 207 241 197 191 192 186 188 192 197 197
353 349 347 353 345 1 1 344 350 318 302 232 216 259 305 153 158 173 181 165 153 168 183 192 196 210 213 211 224 219 236 239 237 238 223 226 245 218 196 202 197 192 194 200 205
352 348 344 350 349 3 353 60 48 333 302 279 256 248 239 163 185 178 173 158 170 182 175 176 222 210 207 207 217 225 234 242 257 260 279 251 259 227 197 207 201 196 197 204 202
351 348 345 347 357 352 349 39 347 341 259 288 240 236 233 225 221 189 179 191 189 192 197 200 189 204 197 200 208 220 223 219 232 337 240 255 255 209 214 214 208 212 211 207 202
351 349 350 346 356 350 12 326 319 324 277 261 231 246 182 181 232 206 191 180 189 205 199 220 211 192 205 217 206 222 219 237 244 258 250 229 265 213 208 206 208 210 209 211 210
348 351 347 350 343 353 322 323 317 216 288 114 147 157 179 189 46 200 194 202 201 185 178 202 201 197 211 210 204 227 207 221 239 247 263 236 250 248 207 213 216 212 214 212 212
346 350 344 354 353 346 331 329 157 226 241 102 91 148 173 222 240 95 187 205 208 188 213 207 204 194 206 209 201 189 173 193 210 241 239 239 233 249 210 216 216 217 221 217 214
348 351 347 2 350 341 336 331 206 233 350 12 359 345 319 269 219 201 188 193 189 188 193 202 191 201 192 184 200 196 181 186 218 219 238 220 229 240 232 218 218 210 218 218 214
347 354 14 355 344 333 341 232 230 16 349 349 335 310 214 347 204 269 193 194 205 205 190 201 211 195 190 202 187 201 199 205 214 233 244 195 237 237 223 235 232 233 227 224 217
351 358 13 355 340 333 334 229 335 9 350 331 323 308 329 2 333 322 171 202 200 213 210 204 221 191 179 194 184 196 211 216 256 151 262 223 247 264 239 224 217 221 226 220 216
352 349 2 346 347 349 292 303 321 12 341 328 324 354 342 348 355 2 88 0 246 39 317 191 219 202 195 189 201 186 180 185 215 232 238 219 247 234 198 213 212 215 214 223 223
354 2 352 348 358 36 19 321 308 334 341 323 321 309 326 343 327 3 28 47 5 328 5 329 232 132 171 204 190 181 189 206 202 221 227 247 245 208 219 213 213 216 214 217 220
357 351 356 10 40 14 350 322 310 327 342 312 305 312 309 343 327 20 80 42 2 349 36 28 269 220 203 189 214 203 196 197 204 187 225 259 252 263 228 221 228 226 225 229 228
346 321 360 25 39 354 332 306 315 343 340 327 322 354 341 344 298 46 33 28 8 17 22 352 223 201 227 214 199 218 215 207 218 233 217 210 213 250 253 263 234 239 241 238 243
345 340 345 40 86 357 339 320 328 336 349 347 355 351 344 332 341 328 356 4 352 9 345 329 329 257 223 230 22 226 219 212 213 221 225 226 235 227 267 252 259 262 267 259 248
354 339 332 320 344 326 306 298 309 349 343 1 29 31 344 288 317 346 7 334 357 7 6 8 301 327 305 299 293 270 262 243 234 233 230 239 237 232 246 279 276 276 276 282 254
329 325 312 290 292 316 315 305 311 334 331 314 305 6 334 360 339 311 343 346 339 352 27 357 283 305 301 293 284 275 255 251 244 242 254 258 260 260 240 238 251 268 281 282 280
310 295 274 288 278 296 297 300 312 324 307 334 326 325 312 323 323 306 282 269 270 289 311 312 288 252 258 304 308 271 244 241 243 243 240 242 251 254 249 240 247 247 252 253 253